Hourly Data Report for October 04, 2017

All times are specified in Local Standard Time (LST). Add 1 hour to adjust for Daylight Saving Time where and when it is observed.

CHESTERFIELD INLET A
NUNAVUT

63°20'50.000" N
90°43'52.000" W
9.80 m
2300710
YCS

Related Data

No related data is available for this station

Download Data

Hourly Data (October 2017)
Hourly Data Report for October 4, 2017
Temp Definition
°C
Dew Point Temp Definition
°C
Rel Hum Definition
%
Wind Dir Definition
10's deg

Wind Spd Definition
km/h
Visibility Definition
km
Stn Press Definition
kPa
Hmdx Definition


Wind Chill Definition


Weather Definition


TIME
00:00 Legend Double Dagger -3.9 -6.0 85 28 29 LegendMM 100.45   -11 LegendNANA
01:00 Legend Double Dagger -3.7 -6.7 79 27 24 LegendMM 100.41   -11 LegendNANA
02:00 Legend Double Dagger -4.0 -7.3 78 28 31 LegendMM 100.37   -12 LegendNANA
03:00 Legend Double Dagger -4.0 -6.9 81 28 31 LegendMM 100.32   -12 LegendNANA
04:00 Legend Double Dagger -3.8 -6.5 81 30 40 LegendMM 100.30   -12 LegendNANA
05:00 Legend Double Dagger -4.9 -8.9 73 28 40 LegendMM 100.26   -14 LegendNANA
06:00 Legend Double Dagger -5.1 -9.0 74 29 39 LegendMM 100.21   -14 LegendNANA
07:00 Legend Double Dagger -5.0 -7.2 84 29 35 LegendMM 100.17   -14 LegendNANA
08:00 Legend Double Dagger -4.3 -8.4 73 31 51 LegendMM 100.09   -14 LegendNANA
09:00 Legend Double Dagger -4.3 -8.3 74 30 52 LegendMM 100.06   -14 LegendNANA
10:00 Legend Double Dagger -3.7 -8.1 72 30 50 LegendMM 99.98   -13 LegendNANA
11:00 Legend Double Dagger -3.5 -7.8 73 29 55 LegendMM 99.92   -13 LegendNANA
12:00 Legend Double Dagger -3.3 -7.3 74 29 51 LegendMM 99.85   -13 LegendNANA
13:00 Legend Double Dagger -3.2 -7.2 74 29 52 LegendMM 99.80   -13 LegendNANA
14:00 Legend Double Dagger -2.9 -6.7 75 29 52 LegendMM 99.75   -12 LegendNANA
15:00 Legend Double Dagger -2.2 -6.3 73 29 52 LegendMM 99.68   -11 LegendNANA
16:00 Legend Double Dagger -2.4 -6.3 75 29 57 LegendMM 99.64   -12 LegendNANA
17:00 Legend Double Dagger -2.9 -6.0 79 28 47 LegendMM 99.61   -12 LegendNANA
18:00 Legend Double Dagger -3.2 -5.8 82 29 46 LegendMM 99.56   -12 LegendNANA
19:00 Legend Double Dagger -3.3 -5.5 85 28 53 LegendMM 99.49   -13 LegendNANA
20:00 Legend Double Dagger -3.4 -5.1 88 29 50 LegendMM 99.42   -13 LegendNANA
21:00 Legend Double Dagger -3.1 -5.7 82 29 57 LegendMM 99.38   -13 LegendNANA
22:00 Legend Double Dagger -3.1 -5.8 82 29 57 LegendMM 99.32   -13 LegendNANA
23:00 Legend Double Dagger -3.1 -6.1 80 29 52 LegendMM 99.28   -13 LegendNANA

Notes on Data Quality.

Legend

  • E = Estimated
  • M = Missing
  • NA = Not Available
  • ‡ = Partner data that is not subject to review by the National Climate Archives
Date modified: